Regional Weather Roundup
Issued by NWS

Home | Current Version | Previous Version | Graphics & Text | Print | Product List | Glossary On
Versions: 1 2 3 4 5 6 7 8 9 10 11 12 13 14 15 16 17 18 19 20 21 22 23 24 25 26 27 28 29 30 31 32 33 34 35 36 37 38 39 40 41 42 43 44 45 46 47 48 49 50
000
ASUS43 KDMX 070007
RWRIA

WEATHER ROUNDUP FOR IOWA
NATIONAL WEATHER SERVICE DES MOINES IA
700 PM CDT WED MAY 06 2015

NOTE: "FAIR" INDICATES FEW OR NO CLOUDS BELOW 12,000 FEET WITH NO
SIGNIFICANT WEATHER AND/OR OBSTRUCTIONS TO VISIBILITY.

* - THESE STATIONS ARE NOT NWS STATIONS...THUS NOT UNDER NWS
QUALITY CONTROL.  THEY ALSO DO NOT REPORT WEATHER SUCH
AS PRECIPITATION OR FOG.

IAZ001>003-012>014-020>022-031>034-043>046-070100-
   NORTHWEST IOWA

CITY           SKY/WX    TMP DP  RH WIND       PRES   REMARKS
CARROLL *      CLOUDY    72  59  64 S20G32    29.83R
CHEROKEE *     CLOUDY    69  60  75 S16G22    29.78F
DENISON *      CLOUDY    70  63  78 S21       29.78F
LE MARS *      CLOUDY    70  63  78 SE17G26   29.75F
ORANGE CITY *  PTSUNNY   66  61  82 S13G20    29.76F
SHELDON *      PTSUNNY   68 N/A N/A S18G26    29.76F
SIOUX CITY     MOSUNNY   70  60  70 SE22G31   29.73F
6HR MIN TEMP:  65; 6HR MAX TEMP:  74; 6HR PCP:  0.04;

SPENCER        CLOUDY    70  63  78 S13       29.80F
6HR MIN TEMP:  66; 6HR MAX TEMP:  75; 6HR PCP:  0.04;

STORM LAKE *   CLOUDY    68  59  73 S17       29.82S
$$

IAZ055>058-069>071-079>083-090>094-070100-
   SOUTHWEST IOWA

CITY           SKY/WX    TMP DP  RH WIND       PRES   REMARKS
ATLANTIC *     CLOUDY    72  59  64 S24G36    29.81F
AUDUBON *      MOSUNNY   70  61  73 S15G28    29.83F
CLARINDA *     CLOUDY    70  59  68 S14G23    29.83F
COUNCIL BLFS * PTSUNNY   70  64  83 S25G36    29.78F
CRESTON *      MOSUNNY   70  59  68 S23G30    29.86S
HARLAN  *      CLOUDY    70  64  83 S21G29    29.83F
LAMONI         CLOUDY    72  60  66 S12G28    29.89S
6HR MIN TEMP:  68; 6HR MAX TEMP:  74; 6HR PCP: TRACE;

RED OAK *      CLOUDY    70  57  64 SE18G29   29.80F
SHENANDOAH *   CLOUDY    70  59  68 S18G30    29.81S
$$

IAZ047>049-059>061-072>074-084-070100-
   CENTRAL IOWA

CITY           SKY/WX    TMP DP  RH WIND       PRES   REMARKS
AMES           PTSUNNY   72  58  61 S18       29.87F
6HR MIN TEMP:  71; 6HR MAX TEMP:  76;

ANKENY *       MOSUNNY   72  59  64 S15G26    29.88R
CHARITON *     SUNNY     72  61  68 S17       29.90F
DES MOINES     PTSUNNY   73  59  61 S18       29.88S
6HR MIN TEMP:  72; 6HR MAX TEMP:  79; 6HR PCP: TRACE;

GRINNELL*      CLOUDY    72  59  64 SE14      29.92F
KNOXVILLE *    SUNNY     72  57  60 S16G22    29.89F
MARSHALLTOWN   CLOUDY    73  56  54 S24G31    29.89F
6HR MIN TEMP:  72; 6HR MAX TEMP:  79; 6HR PCP: TRACE;

PELLA *        PTSUNNY   73  61  65 S17G23    29.92F
PERRY *          N/A     72  59  64 S18G28    29.85S
$$

IAZ004>006-015-016-023>025-035-036-070100-
   NORTH CENTRAL IOWA

CITY           SKY/WX    TMP DP  RH WIND       PRES   REMARKS
ALGONA *       SUNNY     73  59  60 S22       29.83S
CLARION *      SUNNY     72  59  64 S18G25    29.85F
ESTHERVILLE    CLOUDY    69  63  81 S14       29.81F
6HR MIN TEMP:  64; 6HR MAX TEMP:  76; 6HR PCP:  0.08;

FORT DODGE *     N/A     72  57  60 S13G24    29.85S
MASON CITY     PTSUNNY   72  58  61 S16G24    29.88F
6HR MIN TEMP:  70; 6HR MAX TEMP:  76; 6HR PCP:  0.01;

FOREST CITY *  SUNNY     70  57  64 S17       29.86S
IOWA FALLS *     N/A     70  57  64 SE13      29.90F
$$

IAZ007>011-017>019-026>030-037>042-050>054-066-070100-
   NORTHEAST IOWA

CITY           SKY/WX    TMP DP  RH WIND       PRES   REMARKS
CEDAR RAPIDS   CLOUDY    65  63  93 SE8       29.96F
6HR MIN TEMP:  65; 6HR MAX TEMP:  81; 6HR PCP:  0.18;

CHARLES CITY * PTSUNNY   70  68  94 SE17G23   29.92S
CLINTON *      PTSUNNY   70  59  68 W16       30.03R
DECORAH *      LGT RAIN  64  63  94 SE10      29.96S
DUBUQUE        PTSUNNY   69  60  73 SW16      30.01R
6HR MIN TEMP:  69; 6HR MAX TEMP:  79; 6HR PCP: TRACE;

MONTICELLO *   LGT RAIN  66  64  94 S10G16    30.00S
OELWEIN *      PTSUNNY   66  63  88 S16       29.96F
WATERLOO       CLOUDY    70  60  70 S14       29.92F
6HR MIN TEMP:  67; 6HR MAX TEMP:  80; 6HR PCP:  0.09;

$$

IAZ064-065-067-068-078-070100-
   EAST CENTRAL IOWA

CITY           SKY/WX    TMP DP  RH WIND       PRES   REMARKS
DAVENPORT      LGT RAIN  69  60  73 SW12      30.00F
6HR MIN TEMP:  68; 6HR MAX TEMP:  83; 6HR PCP: TRACE;

IOWA CITY      CLOUDY    66  63  90 SE5       29.99F
6HR MIN TEMP:  64; 6HR MAX TEMP:  82; 6HR PCP:  0.13;

MT. PLEASANT * LGT RAIN  68  64  86 CALM      29.98F
MUSCATINE *    CLOUDY    68  64  88 SE6       29.99S
QUAD CITIES    CLOUDY    71  60  68 W6        30.00S
6HR MIN TEMP:  71; 6HR MAX TEMP:  83;

$$

IAZ062-063-075>077-085>089-095>099-070100-
   SOUTHEAST IOWA

CITY           SKY/WX    TMP DP  RH WIND       PRES   REMARKS
BURLINGTON     CLOUDY    72  63  73 CALM      29.98F
6HR MIN TEMP:  70; 6HR MAX TEMP:  83; 6HR PCP:  0.01;

FAIRFIELD *    SUNNY     68  64  88 SE7       29.96F
FORT MADISON * SUNNY     73  61  64 CALM      29.98F
KEOKUK *       SUNNY     73  63  68 SE3       29.97F
OSKALOOSA *      N/A     73  57  57 S16       29.94F
CENTERVILLE *  SUNNY     72  59  64 S14       29.93F
OTTUMWA        PTSUNNY   73  57  57 S18G24    29.93F
6HR MIN TEMP:  73; 6HR MAX TEMP:  80; 6HR PCP: TRACE;

WASHINGTON *   SUNNY     70 -38   1 SE7       29.97F
$$

ABBREVIATIONS USED IN REMARKS
   TC - TEMPERATURES IN CELSIUS
  WCI - WIND CHILL INDEX
   HX - HEAT INDEX
  VSB - VISIBILITY
$$



USA.gov is the U.S. government's official web portal to all federal, state and local government web resources and services.